This is the latest recevied weather packets stored in our database for station/object M8FSI-13. If no packets are shown the sender has not sent any weather packets the latest 10 day(s).
| Time | Temp. | Humidity | Pressure | Rain* | Wind** | Luminosity | Snow |
|---|---|---|---|---|---|---|---|
| 1778039158 | 10° C | 74% | 1012.9 hPa | 0 mm | - | - | - |
| 1778037920 | 10.56° C | 73% | 1012.9 hPa | 0 mm | - | - | - |
| 1778036733 | 10.56° C | 72% | 1012.9 hPa | 0 mm | - | - | - |
| 1778035535 | 10.56° C | 71% | 1012.8 hPa | 0 mm | - | - | - |
| 1778031948 | 11.11° C | 74% | 1013 hPa | 0 mm | - | - | - |
| 1778028919 | 11.67° C | 72% | 1013.1 hPa | 0 mm | - | - | - |
| 1778023521 | 12.22° C | 65% | 1013.2 hPa | 0 mm | - | - | - |
| 1778022319 | 12.22° C | 62% | 1013.1 hPa | 0 mm | - | - | - |
| 1778019318 | 12.78° C | 66% | 1012.7 hPa | 0 mm | - | - | - |
| 1778018719 | 13.33° C | 66% | 1012.6 hPa | 0 mm | - | - | - |
| 1778017534 | 13.33° C | 73% | 1012.5 hPa | 0 mm | - | - | - |
| 1778016381 | 13.33° C | 72% | 1012.6 hPa | 0 mm | - | - | - |
| 1778015141 | 13.33° C | 73% | 1012.4 hPa | 0 mm | - | - | - |
| 1778013971 | 13.33° C | 72% | 1012.4 hPa | 0 mm | - | - | - |
| 1778013335 | 13.89° C | 71% | 1012.5 hPa | 0 mm | - | - | - |
| 1778010920 | 13.89° C | 70% | 1012.4 hPa | 0 mm | - | - | - |
| 1778007325 | 14.44° C | 67% | 1012 hPa | 0 mm | - | - | - |
| 1778006121 | 15° C | 66% | 1012 hPa | 0 mm | - | - | - |
| 1778004935 | 15° C | 65% | 1011.8 hPa | 0 mm | - | - | - |
| 1778001962 | 15.56° C | 62% | 1011.9 hPa | 0 mm | - | - | - |
| 1777996550 | 16.11° C | 57% | 1012 hPa | 0 mm | - | - | - |
| 1777992920 | 16.67° C | 57% | 1012.3 hPa | 0 mm | - | - | - |
| 1777992320 | 16.67° C | 58% | 1012.3 hPa | 0 mm | - | - | - |
| 1777990540 | 16.67° C | 57% | 1012.3 hPa | 0 mm | - | - | - |
| 1777989320 | 16.67° C | 57% | 1012.3 hPa | 0 mm | - | - | - |
* Rain latest hour (hover to see other rain measurements)
** Current wind speed in m/s (hover to see current wind gust speed)